TimeMDT,TemperatureF,Dew PointF,Humidity,Sea Level PressureIn,VisibilityMPH,Wind Direction,Wind SpeedMPH,Gust SpeedMPH,PrecipitationIn,Events,Conditions,WindDirDegrees,DateUTC
12:53 AM,32.0,28.9,88,29.75,10.0,North,4.6,-,N/A,,Mostly Cloudy,360,2013-05-19 06:53:00
1:53 AM,30.9,28.9,92,29.78,10.0,Calm,Calm,-,0.00,,Mostly Cloudy,0,2013-05-19 07:53:00
2:53 AM,30.9,28.0,89,29.74,10.0,North,3.5,-,N/A,,Mostly Cloudy,10,2013-05-19 08:53:00
3:53 AM,30.9,28.0,89,29.72,10.0,Calm,Calm,-,N/A,,Mostly Cloudy,0,2013-05-19 09:53:00
4:53 AM,30.0,27.0,88,29.78,10.0,North,6.9,-,N/A,,Clear,10,2013-05-19 10:53:00
5:37 AM,30.2,26.6,86,30.05,10.0,NNW,4.6,-,N/A,,Overcast,340,2013-05-19 11:37:00
5:53 AM,30.2,26.6,86,30.05,10.0,North,4.6,-,N/A,,Overcast,10,2013-05-19 11:53:00
6:00 AM,30.2,26.6,86,30.05,10.0,North,4.6,-,N/A,,Overcast,360,2013-05-19 12:00:00
6:53 AM,30.9,28.0,89,29.81,6.0,NNW,4.6,-,0.00,Snow,Light Snow,340,2013-05-19 12:53:00
7:53 AM,33.1,27.0,78,29.81,9.0,North,3.5,-,0.00,,Mostly Cloudy,350,2013-05-19 13:53:00
8:40 AM,32.0,26.6,80,30.06,1.2,NW,11.5,16.1,0.00,Snow,Light Snow,310,2013-05-19 14:40:00
8:43 AM,30.2,28.4,93,30.06,0.2,WNW,11.5,-,0.00,Fog-Snow,Snow,300,2013-05-19 14:43:00
8:48 AM,30.2,28.4,93,30.06,0.2,WNW,6.9,-,0.01,Fog-Snow,Heavy Snow,290,2013-05-19 14:48:00
8:53 AM,28.9,28.0,96,29.85,0.2,West,6.9,-,0.02,Fog-Snow,Snow,280,2013-05-19 14:53:00
9:23 AM,30.2,28.4,93,30.06,0.5,Calm,Calm,-,0.03,Fog-Snow,Light Snow,0,2013-05-19 15:23:00
9:29 AM,30.2,28.4,93,30.06,2.0,Calm,Calm,-,0.03,Snow,Light Snow,0,2013-05-19 15:29:00
9:37 AM,32.0,28.4,87,30.05,9.0,Calm,Calm,-,0.03,,Overcast,0,2013-05-19 15:37:00
9:53 AM,33.1,28.0,82,29.82,3.0,NW,9.2,-,0.03,Snow,Light Snow,310,2013-05-19 15:53:00
10:05 AM,30.2,26.6,86,30.06,2.5,West,10.4,-,0.00,Snow,Light Snow,260,2013-05-19 16:05:00
10:12 AM,30.2,28.4,93,30.06,1.0,WSW,6.9,-,0.00,Snow,Light Snow,250,2013-05-19 16:12:00
10:17 AM,28.4,28.4,100,30.06,0.5,WSW,6.9,-,0.00,Fog-Snow,Snow,250,2013-05-19 16:17:00
10:24 AM,28.4,28.4,100,30.06,0.2,West,5.8,-,0.01,Fog-Snow,Snow,270,2013-05-19 16:24:00
10:32 AM,30.2,28.4,93,30.06,1.0,Calm,Calm,-,0.01,Snow,Light Snow,0,2013-05-19 16:32:00
10:36 AM,30.2,26.6,86,30.06,3.0,Calm,Calm,-,0.01,Snow,Light Snow,0,2013-05-19 16:36:00
10:53 AM,35.1,27.0,72,29.82,10.0,Variable,3.5,-,0.01,,Scattered Clouds,0,2013-05-19 16:53:00
11:35 AM,37.4,28.4,70,30.04,10.0,WNW,15.0,21.9,N/A,,Mostly Cloudy,290,2013-05-19 17:35:00
11:44 AM,35.6,28.4,75,30.05,4.0,WNW,16.1,27.6,0.00,Snow,Light Snow,300,2013-05-19 17:44:00
11:49 AM,35.6,30.2,81,30.06,1.8,NW,16.1,27.6,0.00,Snow,Light Snow,310,2013-05-19 17:49:00
11:53 AM,34.0,30.9,89,29.82,0.5,NW,15.0,26.5,0.00,Fog-Snow,Snow,310,2013-05-19 17:53:00
11:57 AM,33.8,30.2,87,30.06,0.2,NW,10.4,23.0,0.00,Fog-Snow,Snow,320,2013-05-19 17:57:00
12:05 PM,35.6,30.2,81,30.05,1.2,NNW,8.1,-,0.00,Snow,Light Snow,340,2013-05-19 18:05:00
12:08 PM,35.6,30.2,81,30.05,3.0,NNW,6.9,-,0.00,Snow,Light Snow,340,2013-05-19 18:08:00
12:15 PM,37.4,30.2,75,30.05,8.0,NW,9.2,-,0.00,,Overcast,320,2013-05-19 18:15:00
12:41 PM,33.8,28.4,81,30.05,10.0,WSW,11.5,21.9,0.00,,Mostly Cloudy,250,2013-05-19 18:41:00
12:51 PM,35.6,28.4,75,30.04,10.0,West,12.7,17.3,0.00,,Mostly Cloudy,280,2013-05-19 18:51:00
12:53 PM,37.4,28.4,70,30.05,10.0,NW,19.6,24.2,N/A,,Mostly Cloudy,310,2013-05-19 18:53:00
1:05 PM,37.4,26.6,65,30.04,10.0,NW,15.0,25.3,N/A,,Scattered Clouds,320,2013-05-19 19:05:00
1:53 PM,39.2,24.8,56,30.04,10.0,NW,13.8,21.9,N/A,,Mostly Cloudy,310,2013-05-19 19:53:00
2:53 PM,39.9,24.1,53,29.78,10.0,WNW,18.4,31.1,N/A,,Partly Cloudy,300,2013-05-19 20:53:00
2:57 PM,37.4,28.4,70,30.05,1.8,WNW,21.9,35.7,0.00,Snow,Light Snow,290,2013-05-19 20:57:00
3:06 PM,33.8,30.2,87,30.05,0.5,NW,8.1,-,0.00,Fog-Snow,Light Snow,320,2013-05-19 21:06:00
3:12 PM,37.4,32.0,81,30.05,3.0,NW,9.2,-,0.00,Snow,Light Snow,320,2013-05-19 21:12:00
3:53 PM,39.0,26.1,60,29.80,10.0,North,10.4,25.3,0.00,,Partly Cloudy,350,2013-05-19 21:53:00
4:43 PM,35.6,28.4,75,30.06,8.0,North,17.3,26.5,0.00,Rain,Light Rain,360,2013-05-19 22:43:00
4:53 PM,36.0,28.0,73,29.84,9.0,North,11.5,21.9,0.00,,Overcast,10,2013-05-19 22:53:00
5:53 PM,36.0,26.1,67,29.84,10.0,Variable,4.6,-,N/A,,Mostly Cloudy,0,2013-05-19 23:53:00
6:53 PM,37.9,24.1,57,29.80,10.0,WNW,13.8,-,N/A,,Scattered Clouds,300,2013-05-20 00:53:00
7:43 PM,32.0,28.4,87,30.08,1.8,West,11.5,-,0.00,Snow,Light Snow,270,2013-05-20 01:43:00
7:51 PM,30.2,28.4,93,30.08,0.5,West,9.2,-,0.00,Fog-Snow,Snow,280,2013-05-20 01:51:00
7:53 PM,30.9,28.9,92,29.88,0.5,West,10.4,-,0.00,Fog-Snow,Light Snow,280,2013-05-20 01:53:00
8:03 PM,30.2,30.2,100,30.09,0.5,West,12.7,-,0.01,Fog-Snow,Snow,270,2013-05-20 02:03:00
8:26 PM,30.2,28.4,93,30.09,0.5,WNW,8.1,-,0.02,Fog-Snow,Snow,290,2013-05-20 02:26:00
8:33 PM,30.2,28.4,93,30.09,0.5,WNW,4.6,-,0.02,Fog-Snow,Snow,300,2013-05-20 02:33:00
8:40 PM,30.2,28.4,93,30.09,1.8,North,4.6,-,0.02,Snow,Light Snow,350,2013-05-20 02:40:00
8:42 PM,30.2,28.4,93,30.09,3.0,North,4.6,-,0.02,Snow,Light Snow,360,2013-05-20 02:42:00
8:53 PM,30.9,28.9,92,29.91,9.0,NNE,3.5,-,0.02,,Overcast,20,2013-05-20 02:53:00
9:53 PM,30.2,28.4,93,30.10,10.0,Calm,Calm,-,N/A,,Mostly Cloudy,0,2013-05-20 03:53:00
10:53 PM,30.9,28.9,92,29.87,2.5,NE,3.5,-,0.00,Snow,Light Snow,40,2013-05-20 04:53:00
11:01 PM,30.2,28.4,93,30.09,1.8,NE,4.6,-,0.00,Snow,Light Snow,40,2013-05-20 05:01:00
11:04 PM,30.2,28.4,93,30.09,3.0,NNE,4.6,-,0.00,Snow,Light Snow,30,2013-05-20 05:04:00
11:53 PM,30.0,28.0,92,29.88,10.0,North,5.8,-,0.00,,Mostly Cloudy,10,2013-05-20 05:53:00